This demonstration page uses our WeatherBlox Daily Observations layout. Learn more.

Left ArrowRight Arrow

Hourly Observations for December 3, 2022

Temp ( °F °C ) Dew Point ( °F °C ) Humidity (%) Winds ( mph kmh ) Pressure ( in mb ) Visibility ( mi km ) Precip ( " mm )
12:54 am 00:54 Clear 19 -7.2 7 -13.9 59 59 NNW 16 26 30.43 1030 10 16 0.00 0.00
1:54 am 01:54 Clear 17 -8.3 6 -14.4 61 61 NW 12 19 30.46 1032 10 16 0.00 0.00
2:54 am 02:54 Clear 16 -8.9 5 -15 61 61 WNW 8 13 30.48 1032 10 16 0.00 0.00
3:54 am 03:54 Clear 15 -9.4 4 -15.6 60 60 W 8 13 30.54 1034 10 16 0.00 0.00
4:54 am 04:54 Clear 13 -10.6 3 -16.1 64 64 W 5 7 30.59 1036 10 16 0.00 0.00
5:54 am 05:54 Clear 12 -11.1 3 -16.1 66 66 WNW 5 7 30.60 1036 10 16 0.00 0.00
6:54 am 06:54 Clear 11 -11.7 2 -16.7 66 66 WNW 3 6 30.62 1037 10 16 0.00 0.00
7:54 am 07:54 Sunny 10 -12.2 2 -16.7 69 69 NW 3 6 30.64 1038 10 16 0.00 0.00
8:54 am 08:54 Sunny 15 -9.4 4 -15.6 60 60 NW 6 9 30.66 1038 10 16 0.00 0.00
9:54 am 09:54 Sunny 19 -7.2 5 -15 54 54 WSW 7 11 30.65 1038 10 16 0.00 0.00
10:54 am 10:54 Sunny 24 -4.4 5 -15 43 43 W 8 13 30.64 1038 10 16 0.00 0.00
11:54 am 11:54 Sunny 28 -2.2 7 -13.9 40 40 SW 7 11 30.60 1036 10 16 0.00 0.00
12:54 pm 12:54 Sunny 30 -1.1 8 -13.3 39 39 SSW 7 11 30.54 1034 10 16 0.00 0.00
1:54 pm 13:54 Sunny 34 1.1 10 -12.2 36 36 SSW 10 17 30.51 1033 10 16 0.00 0.00
2:54 pm 14:54 Sunny 35 1.7 10 -12.2 35 35 S 15 24 30.48 1032 10 16 0.00 0.00
3:54 pm 15:54 Sunny 34 1.1 11 -11.7 38 38 SSW 15 24 30.46 1032 10 16 0.00 0.00
4:54 pm 16:54 Sunny 29 -1.7 10 -12.2 44 44 S 10 17 30.45 1031 10 16 0.00 0.00
5:54 pm 17:54 Clear 28 -2.2 11 -11.7 48 48 S 12 19 30.43 1030 10 16 0.00 0.00
6:54 pm 18:54 Clear 30 -1.1 12 -11.1 46 46 S 13 20 30.42 1030 10 16 0.00 0.00
7:54 pm 19:54 Clear 24 -4.4 10 -12.2 54 54 S 8 13 30.44 1031 10 16 0.00 0.00
8:54 pm 20:54 Clear 25 -3.9 11 -11.7 54 54 S 7 11 30.42 1030 10 16 0.00 0.00
9:54 pm 21:54 Clear 26 -3.3 11 -11.7 52 52 S 12 19 30.38 1029 10 16 0.00 0.00
10:54 pm 22:54 Clear 27 -2.8 11 -11.7 50 50 SSW 9 15 30.36 1028 10 16 0.00 0.00
11:54 pm 23:54 Clear 28 -2.2 11 -11.7 48 48 SSW 9 15 30.34 1027 10 16 0.00 0.00

Powered by AerisWeather